Погода в Сеуле

Южная Корея     37°34′14″N   126°58′36″E
В апреле 2022 года жителям России запретили посещать сайт meteo.paraplan.net по решению Генеральной прокуратуры. Аудитория сайта уменьшилась в 10 раз. Владельцы сайта не видят смысла в поддержке погодного сервера в таких условиях. Сайт будет закрыт в октябре.
темп.,
°C
ветер,
м/с
пор.,
м/с
влажн.,
%
обл.,
%
осадки,
мм/ч
давл.,
гПа
погр.,
м
25 сентября, вс
вс2500:00+19всв1161100 0.0 101717
03:00+18юв1163100 0.0 101636
06:00+17в1160100 0.0 101668
09:00+19всв1157100 0.0 1018313
12:00+24ю013493 0.0 10171124
15:00+26зсз222613 0.0 10151560
18:00+23зсз44385 0.0 1016611
21:00+21зсз124616 0.0 101779
26 сентября, пн
пн2600:00+19ссз1149100 0.0 101728
03:00+18ссв1153100 0.0 101735
06:00+17св1256100 0.0 101771
09:00+20св1146100 0.0 1018306
12:00+24сз1231100 0.0 1018781
15:00+26зсз2223100 0.0 10171257
18:00+24зсз1230100 0.0 101696
21:00+21ссз1145100 0.0 101822
27 сентября, вт
вт2700:00+19всв1150100 0.0 101715
03:00+17всв115385 0.0 101717
06:00+16св225796 0.0 101744
09:00+20всв22452 0.0 1018290
12:00+26всв11280 0.0 1017897
15:00+28в01230 0.0 10151559
18:00+26ююз01290 0.0 101537
21:00+22зюз124439 0.0 101572
28 сентября, ср
ср2800:00+21ссв005044 0.0 101511
03:00+20в1151100 0.0 101524
06:00+19в1154100 0.0 101535
09:00+21всв1150100 0.0 1016264
12:00+23юз1143100 0.0 1015684
15:00+26зюз1138100 0.0 10131124
18:00+24з344619 0.0 1013384
21:00+21з125830 0.0 101480
29 сентября, чт
чт2900:00+20з11661 0.0 101415
03:00+19з00700 0.0 101511
06:00+18в01730 0.0 101512
09:00+21вюв00590 0.0 1016402
12:00+26зсз22370 0.0 10151118
15:00+27з42260 0.0 10141440
18:00+24з34290 0.0 1015430
21:00+21зюз12390 0.0 101688